SCP
0 0 0 0 0 0 0 0 0 0 0 0 0 0 0 0 0 0 0 0 0 0 0 0 0 0 0 0 0 0 0 0 0 0 0 0 0 0 0 0 0 0 0 0 0
0 0 0 0 0 0 0 0 0 0 0 0 0 0 0 0 0 0 0 0 0 0 0 0 0 0 0 0 0 0 0 0 0 0 0 0 0 0 0 0 0 0 0 0 0
0 0 0 0 0 0 0 0 0 0 0 0 0 0 0 0 0 0 0 0 0 0 0 0 0 0 0 0 0 0 0 0 0 0 0 0 0 0 0 0 0 -0 0 0 0
0 0 0 0 0 0 0 0 0 0 0 0 0 0 0 0 0 0 0 0 0 0 0 0 0 0 0 0 0 0 0 0 0 0 0 0 0 0 0 0 0 0 0 0 0
0 0 0 0 0 0 0 0 0 0 0 0 0 0 0 0 0 0 0 0 0 0 0 0 0 0 0 0 0 0 0 0 0 0 0 0 0 0 0 0 0 0 0 0 0
0 0 0 0 0 0 0 0 0 0 0 0 0 0 0 0 0 0 0 0 0 0 0 0 0 0 0 0 0 0 0 0 0 0 0 0 0 0 0 0 0 0 0 0 0
0 0 0 0 0 0 0 0 0 0 0 0 0 0 0 0 0 0 0 0 0 0 0 0 0 0 0 0 0 0 0 0 0 0 0 0 0 0 0 0 0 0 0 0 0
0 0 0 0 0 0 0 0 0 0 0 0 0 0 0 0 0 0 0 0 0 0 0 0 0 0 0 0 0 0 0 0 0 0 0 0 0 0 0 0 0 0 0 0 0
0 0 0 0 0 0 0 0 0 0 0 0 0 0 0 0 0 0 0 0 0 0 0 0 0 0 0 0 0 0 0 0 0 0 0 0 0 0 0 0 0 0 0 0 0
0 0 0 0 0 0 0 0 0 0 0 0 0 0 0 0 0 0 0 0 0 0 0 0 0 0 0 0 0 0 0 0 0 0 0 0 0 0 0 0 0 0 0 0 0
0 0 0 0 0 0 0 0 0 0 0 0 0 0 0 0 0 0 0 0 0 0 0 0 0 0 0 0 0 0 0 0 0 0 0 0 0 0 0 0 0 0 0 0 0
0 0 0 0 0 0 0 0 0 0 0 0 0 0 0 0 0 0 0 0 0 0 0 0 0 0 0 0 0 0 0 0 0 0 0 0 0 0 0 0 0 0 0 0 0
0 0 0 0 0 0 0 0 0 0 0 0 0 0 0 0 0 0 0 0 0 0 0 0 0 0 0 0 0 0 0 0 0 0 0 0 0 0 0 0 0 0 0 0 0
0 0 0 0 0 0 0 0 0 0 0 0 0 0 0 0 0 0 0 0 0 0 0 0 0 0 0 0 0 0 0 0 0 0 0 0 0 0 0 0 0 0 0 0 0
0 0 0 0 0 0 0 0 0 0 0 0 0 0 0 0 0 0 0 0 0 0 0 0 0 0 0 0 0 0 0 0 0 0 0 0 0 0 0 0 0 0 0 0 0
0 0 0 0 0 0 0 0 0 0 0 0 0 0 0 0 0 0 0 0 0 0 0 0 0 0 0 0 0 0 0 0 0 0 0 0 0 0 0 0 0 0 0 0 0
0 0 0 0 0 0 0 0 0 0 0 0 0 0 0 0 0 0 0 0 0 0 0 0 0 0 0 0 0 0 0 0 0 0 0 0 0 0 0 0 0 0 0 0 0
0 0 0 0 0 0 0 0 0 0 0 0 0 0 0 0 0 0 0 0 0 0 0 0 0 0 0 0 0 0 0 0 0 0 0 0 0 0 0 0 0 0 0 0 0
0 0 0 0 0 0 0 0 0 0 0 0 0 0 0 0 0 0 0 0 0 0 0 0 0 0 0 0 0 0 0 0 0 0 0 0 0 0 0 0 0 0 0 0 0
0 0 0 0 0 0 0 0 0 0 0 0 0 0 0 0 0 0 0 0 0 0 0 0 0 0 0 0 0 0 0 0 0 0 0 0 0 0 0 0 0 0 0 0 0
0 0 0 0 0 0 0 0 0 0 0 0 0 0 0 0 0 0 0 0 0 0 0 0 0 0 0 0 0 0 0 0 0 0 0 0 0 0 0 0 0 0 0 0 0
0 0 0 0 0 0 0 0 0 0 0 0 0 0 0 0 0 0 0 0 0 0 0 0 0 0 0 0 0 0 0 0 0 0 0 0 0 0 0 0 0 0 0 0 0
0 0 0 0 0 0 0 0 0 0 0 0 0 0 0 0 0 0 0 0 0 0 0 0 0 0 0 0 0 0 0 0 0 0 0 0 0 0 0 0 0 0 0 0 0
0 0 0 0 0 0 0 0 0 0 0 0 0 0 0 0 0 0 0 0 0 0 0 0 0 0 0 0 0 0 0 0 0 0 0 0 0 0 0 0 0 0 0 0 0
0 0 0 0 0 0 0 0 0 0 0 0 0 0 0 0 0 0 0 0 0 0 0 0 0 0 0 0 0 0 0 0 0 0 0 0 0 0 0 0 0 0 0 0 0
0 0 0 0 0 0 0 0 0 0 0 0 0 0 0 0 0 0 0 0 0 0 0 0 0 0 0 0 0 0 0 0 0 0 0 0 0 0 0 0 0 0 0 0 0
0 0 0 0 0 0 0 0 0 0 0 0 0 0 0 0 0 0 0 0 0 0 0 0 0 0 0 0 0 0 0 0 0 0 0 0 0 0 0 0 0 0 0 0 0
Wind_Speed_500mb
11 11 10 10 10 10 11 12 13 14 15 17 19 20 22 23 24 26 27 11 10 11 9 9 7 2 2 5 6 5 9 2 6 10 4 5 11 2 14 8 5 8 9 23 27
17 15 15 14 14 14 14 15 16 17 19 21 22 24 25 27 29 29 13 8 5 6 7 8 6 4 4 3 3 8 7 13 8 7 3 9 3 17 10 15 6 12 21 19 15
21 20 19 18 18 17 18 18 19 20 21 23 25 25 26 26 28 4 3 3 4 7 10 9 7 3 2 0 1 5 8 6 5 11 8 6 10 2 6 9 5 17 33 19 12
24 24 23 23 22 22 22 23 24 24 25 25 26 26 24 20 8 2 7 6 5 6 9 9 4 2 3 1 3 1 9 8 5 2 8 7 12 12 12 4 22 15 12 10 11
28 27 28 28 28 27 27 27 27 27 26 26 25 25 25 14 16 19 17 16 15 15 16 13 8 5 3 3 2 5 4 7 18 24 21 20 20 14 33 14 10 6 5 10 13
32 32 32 33 34 32 31 30 28 27 27 26 26 25 23 14 19 20 20 21 18 18 20 16 5 8 3 4 6 4 8 20 21 32 24 9 4 3 16 7 7 5 9 10 12
38 36 36 36 35 33 32 30 29 30 30 27 26 25 28 38 25 18 20 21 18 18 19 19 14 11 7 1 3 5 9 14 15 7 6 9 1 7 19 9 15 17 16 14 16
40 38 36 36 35 34 33 32 31 30 30 28 26 24 21 27 28 29 33 25 19 17 17 15 14 13 6 4 8 6 8 8 7 2 2 9 13 14 29 16 19 16 14 13 14
38 37 36 34 33 34 33 30 29 30 30 28 25 17 19 23 22 28 24 21 21 19 17 13 14 7 7 10 8 9 6 8 15 5 5 5 11 8 40 22 22 18 16 15 13
39 38 36 34 31 31 28 29 27 29 31 29 29 12 29 14 13 16 22 20 14 19 15 12 7 6 5 7 10 11 8 9 11 1 7 1 13 10 34 28 25 23 22 22 23
38 37 36 33 31 31 24 23 19 17 31 23 11 13 7 18 16 18 24 26 18 14 9 6 7 16 24 20 5 7 9 11 7 4 2 13 11 11 17 26 24 25 28 32 35
40 39 37 35 34 32 28 17 17 8 20 34 45 47 35 16 13 26 30 24 16 10 13 7 12 21 7 9 10 4 4 10 10 7 11 9 9 6 13 11 16 26 31 35 39
46 42 39 35 35 37 34 34 22 15 12 20 46 43 53 50 26 32 40 19 9 12 15 15 11 13 12 9 11 9 12 8 14 7 2 6 9 8 9 22 24 24 28 33 38
56 49 44 37 35 41 40 24 26 6 7 12 12 13 25 26 14 33 41 19 7 21 14 12 9 11 8 11 13 9 15 11 7 5 8 3 9 5 9 8 10 20 25 29 32
62 60 53 53 23 27 25 26 20 13 12 3 8 12 22 22 22 7 30 13 15 14 13 13 12 10 12 12 14 11 9 10 6 7 4 6 3 7 12 9 11 21 26 28 29
50 53 57 52 49 35 27 23 34 7 22 6 8 11 11 7 6 13 12 10 9 8 3 8 3 11 14 5 10 16 11 11 8 5 2 13 13 7 11 11 14 28 33 34 32
60 55 66 67 73 57 38 37 5 11 1 11 10 9 4 9 5 8 12 12 12 10 12 3 8 5 6 11 4 8 12 1 6 2 10 2 5 13 12 8 32 43 50 43 39
66 67 72 82 72 62 55 10 12 15 15 6 9 7 13 13 8 10 12 12 10 6 6 14 7 18 11 11 13 11 13 10 12 7 7 2 12 10 2 11 27 59 60 51 45
68 73 72 78 79 77 46 16 17 12 13 18 7 8 8 9 11 8 16 14 18 23 13 10 6 3 5 6 7 8 8 5 13 6 5 9 10 2 5 3 25 51 60 56 51
57 73 81 72 79 79 25 31 17 11 12 9 25 16 20 16 13 14 19 11 13 24 10 12 5 2 5 8 8 8 11 7 5 3 8 8 11 10 12 18 18 32 53 62 56
54 21 31 76 50 39 17 9 11 20 16 14 23 16 16 18 20 12 16 6 12 13 14 12 7 3 8 12 18 6 6 7 8 8 10 4 11 11 18 30 36 44 67 69 63
54 14 22 52 21 8 20 14 17 12 15 7 7 11 16 21 18 17 25 14 29 27 18 13 10 8 13 3 1 4 14 14 12 11 6 5 22 5 7 31 49 55 73 73 67
31 32 34 62 19 20 6 9 20 17 16 16 18 11 1 14 10 10 12 1 30 19 21 17 3 4 11 4 2 9 11 8 7 7 23 9 17 8 9 21 42 45 66 71 64
27 4 16 25 9 24 23 16 15 14 11 13 11 13 7 6 4 7 9 3 6 12 12 19 8 15 23 11 10 10 12 12 11 13 15 33 30 7 8 14 28 53 57 65 62
21 6 15 6 10 8 25 23 26 17 9 23 6 28 26 20 19 17 11 8 2 8 6 12 12 7 4 6 4 6 11 22 25 32 23 29 27 12 21 23 44 54 53 51 54
15 10 7 3 0 11 6 7 39 25 23 12 14 29 21 18 21 21 16 6 8 1 8 3 9 7 6 3 6 7 21 16 30 19 16 1 25 12 26 32 26 43 58 53 53
12 12 4 6 4 8 10 15 11 16 8 6 32 18 26 31 20 9 1 9 8 13 14 12 12 8 16 7 6 15 32 30 13 10 17 24 22 9 11 21 41 45 57 50 45
Wind_Direction_500mb
273 277 277 282 285 290 294 300 304 306 308 310 310 313 314 313 311 311 315 294 258 237 235 232 207 201 40 64 52 89 62 173 228 161 242 345 11 341 325 279 318 323 344 322 314
263 264 266 269 276 280 285 290 295 298 302 303 305 309 311 312 312 306 288 285 246 202 182 171 162 103 69 62 34 80 109 219 211 206 252 319 334 324 333 327 293 318 325 314 291
260 260 263 264 267 271 276 281 284 288 292 295 299 303 307 316 320 316 194 164 128 142 152 155 156 11 82 116 182 141 188 212 273 234 281 298 309 250 307 310 347 338 321 314 278
259 262 265 267 268 271 275 278 281 284 287 290 294 299 303 311 309 266 206 201 201 215 209 207 234 352 72 254 192 321 251 233 285 285 310 309 308 293 249 250 320 329 39 51 66
259 263 267 269 271 273 275 277 278 281 285 289 293 297 302 282 261 265 249 246 262 256 232 226 240 186 184 214 177 181 271 257 276 282 278 272 265 269 285 312 138 113 50 34 28
259 262 266 270 273 273 273 274 275 279 283 287 292 294 292 264 266 263 259 258 253 242 233 225 231 218 192 204 174 335 301 291 289 280 279 232 253 281 67 55 101 77 42 29 15
259 260 264 267 269 272 273 273 276 279 281 284 287 289 278 264 267 259 259 253 245 236 232 226 228 193 172 330 292 344 337 327 271 276 234 163 186 108 49 39 55 44 40 30 26
257 258 261 265 268 269 270 273 275 277 279 282 284 285 265 264 258 253 250 243 230 226 224 224 214 210 195 147 23 32 50 349 293 111 340 151 262 129 16 20 68 51 43 39 37
254 256 257 258 263 265 265 266 271 276 278 281 283 268 266 256 249 242 233 232 226 218 208 191 174 155 135 98 12 6 236 218 314 191 145 146 251 97 5 42 63 50 49 54 61
257 257 256 257 255 259 265 268 271 273 269 271 259 271 240 240 226 219 212 206 189 184 165 174 156 90 58 112 221 198 212 246 242 317 45 312 267 29 22 51 65 68 69 63 55
254 256 255 253 254 253 254 268 273 269 234 216 205 207 252 222 213 202 193 180 160 167 154 140 127 206 201 200 172 144 183 213 248 248 35 251 260 21 40 66 76 79 79 76 72
250 251 251 251 250 249 246 235 222 256 293 254 244 247 242 219 207 200 185 177 173 168 120 60 225 228 142 169 199 167 182 250 282 269 169 278 238 80 53 63 100 109 101 97 96
247 248 246 244 245 245 244 239 250 272 262 262 237 238 234 224 221 201 191 189 160 141 190 180 211 154 174 180 180 193 207 200 227 343 294 331 278 178 65 102 110 109 113 112 105
244 243 239 231 238 241 242 239 238 239 278 253 221 223 195 189 221 210 199 188 179 188 167 227 251 182 170 208 149 218 198 187 186 118 230 62 275 214 154 127 102 129 131 124 115
237 239 227 226 220 216 224 219 188 143 274 154 169 166 161 172 136 155 180 182 165 168 144 233 174 183 196 199 170 222 120 145 132 137 39 288 337 249 133 191 180 173 155 142 131
241 242 221 219 218 218 199 173 152 117 238 229 146 169 134 160 130 120 155 152 143 121 303 231 222 165 197 115 166 144 82 58 59 92 279 229 189 228 193 193 172 184 174 159 146
245 242 229 215 215 207 197 168 156 196 50 198 192 167 148 154 156 151 160 163 156 137 217 213 216 180 169 93 62 99 100 305 350 358 229 326 173 250 190 178 180 180 179 170 160
251 245 243 222 217 220 186 170 196 192 201 109 115 100 181 159 205 160 128 181 237 147 128 168 217 164 188 189 171 179 164 157 211 210 259 353 232 261 286 295 208 183 176 173 170
249 253 244 227 217 219 187 206 215 169 163 144 103 140 234 218 152 149 191 196 197 184 181 152 265 102 128 133 132 186 183 174 99 52 31 224 281 208 115 68 149 171 180 183 179
249 252 246 245 226 213 211 218 212 207 131 152 188 175 183 193 156 189 179 201 200 188 195 207 121 156 137 105 47 157 161 86 21 196 255 270 268 233 202 202 185 180 189 189 189
246 250 236 234 225 209 222 220 209 203 176 174 221 185 196 172 178 203 199 229 205 177 158 150 143 210 124 207 170 140 187 68 129 145 180 261 259 214 204 187 186 190 195 196 195
226 231 224 208 203 179 229 167 191 188 178 158 172 222 192 175 174 201 197 222 173 144 170 191 136 168 189 144 47 184 192 167 186 218 232 164 260 79 229 181 184 195 202 202 203
218 225 204 189 218 206 148 196 197 167 198 176 185 210 113 183 180 178 182 357 166 156 168 180 175 75 352 358 321 204 196 165 104 73 217 172 253 43 94 160 195 200 208 208 207
201 206 225 240 235 216 200 193 192 210 196 176 173 140 157 216 255 178 215 146 202 183 162 146 147 177 218 190 135 183 196 188 167 215 227 232 259 172 194 198 201 215 216 211 208
203 207 188 208 227 269 224 180 201 190 234 192 189 216 210 217 216 218 194 149 99 167 121 156 201 176 131 143 157 221 199 193 204 226 218 255 228 203 198 206 214 221 217 212 210
173 156 221 233 68 186 241 244 198 190 168 203 211 194 200 182 190 192 146 167 171 94 165 325 186 117 251 59 51 272 246 203 221 237 251 242 258 157 213 218 215 222 209 209 214
200 161 138 133 176 171 224 208 236 178 204 255 216 183 207 214 192 123 243 203 177 171 181 173 134 137 241 113 110 272 245 211 190 182 181 215 239 169 209 215 224 223 210 213 232
Wind_Speed_850mb
11 11 10 10 10 10 11 12 13 14 15 17 19 20 22 23 24 26 27 11 10 11 9 9 7 2 2 5 6 5 9 2 6 10 4 5 11 2 14 8 5 8 9 23 27
17 15 15 14 14 14 14 15 16 17 19 21 22 24 25 27 29 29 13 8 5 6 7 8 6 4 4 3 3 8 7 13 8 7 3 9 3 17 10 15 6 12 21 19 15
21 20 19 18 18 17 18 18 19 20 21 23 25 25 26 26 28 4 3 3 4 7 10 9 7 3 2 0 1 5 8 6 5 11 8 6 10 2 6 9 5 17 33 19 12
24 24 23 23 22 22 22 23 24 24 25 25 26 26 24 20 8 2 7 6 5 6 9 9 4 2 3 1 3 1 9 8 5 2 8 7 12 12 12 4 22 15 12 10 11
28 27 28 28 28 27 27 27 27 27 26 26 25 25 25 14 16 19 17 16 15 15 16 13 8 5 3 3 2 5 4 7 18 24 21 20 20 14 33 14 10 6 5 10 13
32 32 32 33 34 32 31 30 28 27 27 26 26 25 23 14 19 20 20 21 18 18 20 16 5 8 3 4 6 4 8 20 21 32 24 9 4 3 16 7 7 5 9 10 12
38 36 36 36 35 33 32 30 29 30 30 27 26 25 28 38 25 18 20 21 18 18 19 19 14 11 7 1 3 5 9 14 15 7 6 9 1 7 19 9 15 17 16 14 16
40 38 36 36 35 34 33 32 31 30 30 28 26 24 21 27 28 29 33 25 19 17 17 15 14 13 6 4 8 6 8 8 7 2 2 9 13 14 29 16 19 16 14 13 14
38 37 36 34 33 34 33 30 29 30 30 28 25 17 19 23 22 28 24 21 21 19 17 13 14 7 7 10 8 9 6 8 15 5 5 5 11 8 40 22 22 18 16 15 13
39 38 36 34 31 31 28 29 27 29 31 29 29 12 29 14 13 16 22 20 14 19 15 12 7 6 5 7 10 11 8 9 11 1 7 1 13 10 34 28 25 23 22 22 23
38 37 36 33 31 31 24 23 19 17 31 23 11 13 7 18 16 18 24 26 18 14 9 6 7 16 24 20 5 7 9 11 7 4 2 13 11 11 17 26 24 25 28 32 35
40 39 37 35 34 32 28 17 17 8 20 34 45 47 35 16 13 26 30 24 16 10 13 7 12 21 7 9 10 4 4 10 10 7 11 9 9 6 13 11 16 26 31 35 39
46 42 39 35 35 37 34 34 22 15 12 20 46 43 53 50 26 32 40 19 9 12 15 15 11 13 12 9 11 9 12 8 14 7 2 6 9 8 9 22 24 24 28 33 38
56 49 44 37 35 41 40 24 26 6 7 12 12 13 25 26 14 33 41 19 7 21 14 12 9 11 8 11 13 9 15 11 7 5 8 3 9 5 9 8 10 20 25 29 32
62 60 53 53 23 27 25 26 20 13 12 3 8 12 22 22 22 7 30 13 15 14 13 13 12 10 12 12 14 11 9 10 6 7 4 6 3 7 12 9 11 21 26 28 29
50 53 57 52 49 35 27 23 34 7 22 6 8 11 11 7 6 13 12 10 9 8 3 8 3 11 14 5 10 16 11 11 8 5 2 13 13 7 11 11 14 28 33 34 32
60 55 66 67 73 57 38 37 5 11 1 11 10 9 4 9 5 8 12 12 12 10 12 3 8 5 6 11 4 8 12 1 6 2 10 2 5 13 12 8 32 43 50 43 39
66 67 72 82 72 62 55 10 12 15 15 6 9 7 13 13 8 10 12 12 10 6 6 14 7 18 11 11 13 11 13 10 12 7 7 2 12 10 2 11 27 59 60 51 45
68 73 72 78 79 77 46 16 17 12 13 18 7 8 8 9 11 8 16 14 18 23 13 10 6 3 5 6 7 8 8 5 13 6 5 9 10 2 5 3 25 51 60 56 51
57 73 81 72 79 79 25 31 17 11 12 9 25 16 20 16 13 14 19 11 13 24 10 12 5 2 5 8 8 8 11 7 5 3 8 8 11 10 12 18 18 32 53 62 56
54 21 31 76 50 39 17 9 11 20 16 14 23 16 16 18 20 12 16 6 12 13 14 12 7 3 8 12 18 6 6 7 8 8 10 4 11 11 18 30 36 44 67 69 63
54 14 22 52 21 8 20 14 17 12 15 7 7 11 16 21 18 17 25 14 29 27 18 13 10 8 13 3 1 4 14 14 12 11 6 5 22 5 7 31 49 55 73 73 67
31 32 34 62 19 20 6 9 20 17 16 16 18 11 1 14 10 10 12 1 30 19 21 17 3 4 11 4 2 9 11 8 7 7 23 9 17 8 9 21 42 45 66 71 64
27 4 16 25 9 24 23 16 15 14 11 13 11 13 7 6 4 7 9 3 6 12 12 19 8 15 23 11 10 10 12 12 11 13 15 33 30 7 8 14 28 53 57 65 62
21 6 15 6 10 8 25 23 26 17 9 23 6 28 26 20 19 17 11 8 2 8 6 12 12 7 4 6 4 6 11 22 25 32 23 29 27 12 21 23 44 54 53 51 54
15 10 7 3 0 11 6 7 39 25 23 12 14 29 21 18 21 21 16 6 8 1 8 3 9 7 6 3 6 7 21 16 30 19 16 1 25 12 26 32 26 43 58 53 53
12 12 4 6 4 8 10 15 11 16 8 6 32 18 26 31 20 9 1 9 8 13 14 12 12 8 16 7 6 15 32 30 13 10 17 24 22 9 11 21 41 45 57 50 45
Wind_Direction_850mb
273 277 277 282 285 290 294 300 304 306 308 310 310 313 314 313 311 311 315 294 258 237 235 232 207 201 40 64 52 89 62 173 228 161 242 345 11 341 325 279 318 323 344 322 314
263 264 266 269 276 280 285 290 295 298 302 303 305 309 311 312 312 306 288 285 246 202 182 171 162 103 69 62 34 80 109 219 211 206 252 319 334 324 333 327 293 318 325 314 291
260 260 263 264 267 271 276 281 284 288 292 295 299 303 307 316 320 316 194 164 128 142 152 155 156 11 82 116 182 141 188 212 273 234 281 298 309 250 307 310 347 338 321 314 278
259 262 265 267 268 271 275 278 281 284 287 290 294 299 303 311 309 266 206 201 201 215 209 207 234 352 72 254 192 321 251 233 285 285 310 309 308 293 249 250 320 329 39 51 66
259 263 267 269 271 273 275 277 278 281 285 289 293 297 302 282 261 265 249 246 262 256 232 226 240 186 184 214 177 181 271 257 276 282 278 272 265 269 285 312 138 113 50 34 28
259 262 266 270 273 273 273 274 275 279 283 287 292 294 292 264 266 263 259 258 253 242 233 225 231 218 192 204 174 335 301 291 289 280 279 232 253 281 67 55 101 77 42 29 15
259 260 264 267 269 272 273 273 276 279 281 284 287 289 278 264 267 259 259 253 245 236 232 226 228 193 172 330 292 344 337 327 271 276 234 163 186 108 49 39 55 44 40 30 26
257 258 261 265 268 269 270 273 275 277 279 282 284 285 265 264 258 253 250 243 230 226 224 224 214 210 195 147 23 32 50 349 293 111 340 151 262 129 16 20 68 51 43 39 37
254 256 257 258 263 265 265 266 271 276 278 281 283 268 266 256 249 242 233 232 226 218 208 191 174 155 135 98 12 6 236 218 314 191 145 146 251 97 5 42 63 50 49 54 61
257 257 256 257 255 259 265 268 271 273 269 271 259 271 240 240 226 219 212 206 189 184 165 174 156 90 58 112 221 198 212 246 242 317 45 312 267 29 22 51 65 68 69 63 55
254 256 255 253 254 253 254 268 273 269 234 216 205 207 252 222 213 202 193 180 160 167 154 140 127 206 201 200 172 144 183 213 248 248 35 251 260 21 40 66 76 79 79 76 72
250 251 251 251 250 249 246 235 222 256 293 254 244 247 242 219 207 200 185 177 173 168 120 60 225 228 142 169 199 167 182 250 282 269 169 278 238 80 53 63 100 109 101 97 96
247 248 246 244 245 245 244 239 250 272 262 262 237 238 234 224 221 201 191 189 160 141 190 180 211 154 174 180 180 193 207 200 227 343 294 331 278 178 65 102 110 109 113 112 105
244 243 239 231 238 241 242 239 238 239 278 253 221 223 195 189 221 210 199 188 179 188 167 227 251 182 170 208 149 218 198 187 186 118 230 62 275 214 154 127 102 129 131 124 115
237 239 227 226 220 216 224 219 188 143 274 154 169 166 161 172 136 155 180 182 165 168 144 233 174 183 196 199 170 222 120 145 132 137 39 288 337 249 133 191 180 173 155 142 131
241 242 221 219 218 218 199 173 152 117 238 229 146 169 134 160 130 120 155 152 143 121 303 231 222 165 197 115 166 144 82 58 59 92 279 229 189 228 193 193 172 184 174 159 146
245 242 229 215 215 207 197 168 156 196 50 198 192 167 148 154 156 151 160 163 156 137 217 213 216 180 169 93 62 99 100 305 350 358 229 326 173 250 190 178 180 180 179 170 160
251 245 243 222 217 220 186 170 196 192 201 109 115 100 181 159 205 160 128 181 237 147 128 168 217 164 188 189 171 179 164 157 211 210 259 353 232 261 286 295 208 183 176 173 170
249 253 244 227 217 219 187 206 215 169 163 144 103 140 234 218 152 149 191 196 197 184 181 152 265 102 128 133 132 186 183 174 99 52 31 224 281 208 115 68 149 171 180 183 179
249 252 246 245 226 213 211 218 212 207 131 152 188 175 183 193 156 189 179 201 200 188 195 207 121 156 137 105 47 157 161 86 21 196 255 270 268 233 202 202 185 180 189 189 189
246 250 236 234 225 209 222 220 209 203 176 174 221 185 196 172 178 203 199 229 205 177 158 150 143 210 124 207 170 140 187 68 129 145 180 261 259 214 204 187 186 190 195 196 195
226 231 224 208 203 179 229 167 191 188 178 158 172 222 192 175 174 201 197 222 173 144 170 191 136 168 189 144 47 184 192 167 186 218 232 164 260 79 229 181 184 195 202 202 203
218 225 204 189 218 206 148 196 197 167 198 176 185 210 113 183 180 178 182 357 166 156 168 180 175 75 352 358 321 204 196 165 104 73 217 172 253 43 94 160 195 200 208 208 207
201 206 225 240 235 216 200 193 192 210 196 176 173 140 157 216 255 178 215 146 202 183 162 146 147 177 218 190 135 183 196 188 167 215 227 232 259 172 194 198 201 215 216 211 208
203 207 188 208 227 269 224 180 201 190 234 192 189 216 210 217 216 218 194 149 99 167 121 156 201 176 131 143 157 221 199 193 204 226 218 255 228 203 198 206 214 221 217 212 210
173 156 221 233 68 186 241 244 198 190 168 203 211 194 200 182 190 192 146 167 171 94 165 325 186 117 251 59 51 272 246 203 221 237 251 242 258 157 213 218 215 222 209 209 214
200 161 138 133 176 171 224 208 236 178 204 255 216 183 207 214 192 123 243 203 177 171 181 173 134 137 241 113 110 272 245 211 190 182 181 215 239 169 209 215 224 223 210 213 232